[[{"header":{"parameterUnit":"m.s-1","parameterCategory":1,"la1":30.2991,"la2":30.254,"lo1":-89.0895,"lo2":-89.0444,"dy":0.0017,"dx":0.0017,"nx":28,"ny":28,"refTime":"2024-05-18T21:00:00:Z","depth":0,"parameterNumber":2,"parameterNumberName":"U-component_of_WINDS"},"data":[0,0,0,0,0,0,0,0,0,0,0,0,0,0,0,0,0,0,0,0,0,0,0,0,0,0,0,0,0,0,0,0,0,0,0,0,0,0,0,0,0,0,0,0,0,0,0,0,0,0,0,0,0,0,0,0,0,0,0.3222,0.3224,0,0.3352,0.3353,0.3354,0.3395,0.3394,0.3393,0.3393,0.3527,0.3531,0.3535,0,0,0,0,0,0,0,0,0,0,0,0,0,0.301,0.3014,0.3222,0.3224,0.3225,0.3351,0.3353,0.3355,0.3395,0.3394,0.3393,0.3392,0.3525,0.353,0.3535,0,0,0,0,0,0,0,0,0,0,0,0,0,0.3117,0.3015,0.3222,0.326,0.3265,0.3351,0.3353,0.3355,0.3395,0.3394,0.3393,0.3392,0.3524,0.353,0.3536,0.3593,0,0,0.3555,0.3558,0,0,0,0,0,0,0,0,0.3111,0.3125,0.3253,0.3258,0.3263,0.3356,0.3328,0.3435,0.3395,0.3346,0.3393,0.3392,0.3471,0.3481,0.3508,0.36,0.3605,0.3556,0.3559,0.3562,0.3564,0,0,0,0,0,0,0,0.3104,0.312,0.3273,0.3255,0.3261,0.3271,0.3286,0.3348,0.3412,0.335,0.3353,0.3368,0.3473,0.3502,0.3511,0.3607,0.3555,0.3561,0.3565,0.3567,0.3751,0.3753,0,0,0,0,0,0,0.309,0.3113,0.3269,0.3277,0.3183,0.3276,0.3292,0.3327,0.3411,0.3423,0.3368,0.3369,0.3491,0.3504,0.3516,0.3588,0.3562,0.3568,0.3571,0.375,0.3752,0.3753,0,0,0,0,0,0,0.3085,0.3103,0.3264,0.3196,0.3217,0.3281,0.332,0.333,0.3358,0.3425,0.3437,0.3385,0.3491,0.3507,0.3573,0.3593,0.3571,0.3576,0.3749,0.3751,0.3752,0.3732,0,0,0,0,0,0,0.3079,0.3101,0.3124,0.3196,0.3221,0.3319,0.3321,0.3333,0.3369,0.3371,0.3444,0.3456,0.3492,0.3564,0.358,0.3601,0.3581,0.3747,0.375,0.3752,0.3731,0.3733,0.3734,0,0,0,0,0,0.3071,0.3113,0.3124,0.3143,0.325,0.332,0.3334,0.3374,0.337,0.3393,0.3436,0.3453,0.3588,0.357,0.3588,0.3612,0.3746,0.3749,0.3752,0.3731,0.3733,0.3734,0,0,0,0,0,0,0.3042,0.3124,0.3137,0.3204,0.3255,0.3327,0.3357,0.3375,0.3428,0.3428,0.3476,0.3492,0.3555,0.359,0.3569,0.3671,0.3668,0.3674,0.3646,0.3648,0.365,0.364,0.3586,0,0,0,0,0,0.3043,0.3093,0.3162,0.3214,0.3239,0.3293,0.3325,0.3352,0.3406,0.3428,0.3476,0.3529,0.3583,0.3618,0.3671,0.3737,0.3753,0.3762,0.3763,0.3764,0.3769,0.3805,0.3809,0.3761,0.3761,0.3761,0,0,0.3047,0.3097,0.3126,0.321,0.3252,0.3302,0.3311,0.3365,0.3402,0.3437,0.3501,0.3538,0.36,0.3666,0.3697,0.3697,0.3786,0.3767,0.3768,0.3772,0.3808,0.3813,0.3817,0.3763,0.3763,0.3763,0,0,0.3078,0.3122,0.317,0.3212,0.3276,0.3311,0.3323,0.3392,0.3417,0.3483,0.3509,0.3555,0.3648,0.3691,0.3724,0.3771,0.3789,0.3787,0.3795,0.3829,0.3833,0.3837,0.3853,0.3858,0.3792,0.3792,0.3792,0,0.3075,0.3151,0.3193,0.3244,0.328,0.3312,0.3361,0.34,0.3478,0.3502,0.3501,0.3617,0.3661,0.3736,0.3747,0.3774,0.3788,0.3779,0.3829,0.3833,0.3837,0.3853,0.3859,0.3791,0.3791,0.3791,0.3791,0,0.3143,0.3196,0.3227,0.33,0.334,0.339,0.3438,0.3473,0.3496,0.3532,0.3598,0.3652,0.3716,0.3736,0.3759,0.3815,0.3813,0.382,0.3817,0.384,0.3856,0.3862,0.379,0.379,0.3791,0.3791,0,0,0.316,0.3255,0.3266,0.3299,0.3372,0.3413,0.3464,0.3527,0.3555,0.3608,0.3652,0.3729,0.3735,0.3774,0.3802,0.3832,0.3864,0.3836,0.3838,0.3838,0.3927,0.3921,0.3927,0.3876,0.3878,0.3879,0.3922,0,0.3201,0.3293,0.3331,0.3406,0.3454,0.3485,0.353,0.3579,0.3613,0.366,0.3698,0.3752,0.3757,0.378,0.3811,0.3853,0.3883,0.3851,0.3917,0.3919,0.39,0.3936,0.393,0.3968,0.3928,0.3929,0.393,0,0.326,0.3312,0.3391,0.3456,0.3478,0.3518,0.3577,0.3621,0.3677,0.37,0.3742,0.3768,0.3823,0.3817,0.3892,0.387,0.3899,0.3924,0.3926,0.3934,0.3926,0.3943,0.3981,0.3986,0.394,0.3939,0.3939,0,0.3264,0.3354,0.3412,0.344,0.3518,0.3544,0.3578,0.3633,0.3668,0.372,0.3743,0.3801,0.3833,0.3877,0.3918,0.391,0.399,0.3987,0.401,0.4009,0.4025,0.4024,0.4067,0.4045,0.4045,0.4045,0.4044,0,0.3305,0.3351,0.3415,0.3451,0.3504,0.3547,0.3599,0.3635,0.3683,0.3727,0.3758,0.3798,0.385,0.3896,0.3929,0.3986,0.4,0.402,0.4028,0.4017,0.4015,0.4037,0.4035,0.4046,0.4046,0.4046,0.4045,0,0.3318,0.3362,0.3428,0.3496,0.3514,0.355,0.3608,0.3644,0.368,0.3734,0.3749,0.3805,0.3862,0.3907,0.3981,0.4003,0.4063,0.4072,0.4043,0.4048,0.4067,0.4065,0.4127,0.4137,0.4108,0.4108,0.4108,0,0.334,0.3377,0.3448,0.3479,0.3513,0.3562,0.3597,0.3641,0.3677,0.3743,0.3771,0.3829,0.3878,0.3967,0.4014,0.4071,0.4081,0.4099,0.409,0.4077,0.4081,0.4078,0.4081,0.41,0.41,0.41,0.41,0,0.3376,0.3396,0.3445,0.3502,0.3543,0.359,0.3638,0.3662,0.3714,0.3752,0.381,0.3848,0.3923,0.398,0.4041,0.4076,0.4097,0.4103,0.4111,0.41,0.4081,0.4091,0.4045,0.4101,0.4101,0.4101,0.4101,0.4101,0.3394,0.3428,0.3483,0.3537,0.3577,0.3621,0.3658,0.3697,0.3746,0.381,0.3833,0.3892,0.3946,0.403,0.4066,0.4112,0.4114,0.4126,0.4129,0.4131,0.4129,0.4074,0.4124,0.4124,0.4124,0.4124,0.4124,0,0.343,0.3467,0.3516,0.3582,0.3624,0.3639,0.3692,0.3727,0.3778,0.3827,0.3874,0.394,0.3995,0.4046,0.4104,0.4132,0.4143,0.4146,0.4144,0.4151,0.4125,0.4112,0.4136,0.4136,0.4136,0.4136,0.4136,0.4136,0.3454,0.3512,0.3538,0.3615,0.3652,0.371,0.3739,0.3779,0.3818,0.389,0.3936,0.3968,0.4018,0.408,0.4131,0.4145,0.4165,0.4165,0.4181,0.4155,0.4153,0.4152,0.4139,0.4169,0.4169,0.4203,0.4204,0.4204]},{"header":{"parameterUnit":"m.s-1","parameterCategory":1,"la1":30.2991,"la2":30.254,"lo1":-89.0895,"lo2":-89.0444,"dy":0.0017,"dx":0.0017,"nx":28,"ny":28,"refTime":"2024-05-18T21:00:00:Z","depth":0,"parameterNumber":3,"parameterNumberName":"V-component_of_WINDS"},"data":[0,0,0,0,0,0,0,0,0,0,0,0,0,0,0,0,0,0,0,0,0,0,0,0,0,0,0,0,0,0,0,0,0,0,0,0,0,0,0,0,0,0,0,0,0,0,0,0,0,0,0,0,0,0,0,0,0,0,3.2514,3.2513,0,3.2504,3.2504,3.2504,3.2454,3.2453,3.2452,3.2451,3.2441,3.2442,3.2443,0,0,0,0,0,0,0,0,0,0,0,0,0,3.2487,3.2487,3.2514,3.2513,3.2513,3.2504,3.2504,3.2504,3.2454,3.2453,3.2451,3.245,3.2441,3.2442,3.2443,0,0,0,0,0,0,0,0,0,0,0,0,0,3.249,3.2488,3.2514,3.2487,3.2485,3.2504,3.2504,3.2504,3.2455,3.2453,3.2451,3.2449,3.2441,3.2442,3.2443,3.2487,0,0,3.2447,3.2448,0,0,0,0,0,0,0,0,3.249,3.2491,3.2491,3.2489,3.2486,3.2479,3.2491,3.2499,3.2455,3.2466,3.2451,3.2448,3.2455,3.2455,3.2457,3.2487,3.2486,3.2447,3.2448,3.2449,3.2449,0,0,0,0,0,0,0,3.249,3.2491,3.251,3.2491,3.2488,3.2476,3.2474,3.2492,3.2471,3.2465,3.2461,3.2461,3.2453,3.2456,3.2457,3.2486,3.2447,3.2448,3.2449,3.245,3.2549,3.2551,0,0,0,0,0,0,3.2493,3.2491,3.251,3.251,3.2484,3.2478,3.2476,3.2483,3.247,3.2467,3.2463,3.2459,3.2455,3.2455,3.2456,3.2505,3.2449,3.245,3.2451,3.2547,3.255,3.2552,0,0,0,0,0,0,3.2493,3.2495,3.2511,3.2499,3.25,3.248,3.2488,3.2484,3.2486,3.2469,3.2464,3.2469,3.2453,3.2454,3.2479,3.2504,3.245,3.2452,3.2545,3.2548,3.2551,3.2605,0,0,0,0,0,0,3.2492,3.2496,3.2512,3.25,3.2501,3.2534,3.249,3.2485,3.2489,3.2484,3.2474,3.2471,3.2452,3.2478,3.2481,3.2505,3.2453,3.2543,3.2546,3.255,3.2601,3.2609,3.2616,0,0,0,0,0,3.2491,3.2528,3.2514,3.2516,3.2522,3.2536,3.2536,3.2514,3.2491,3.2507,3.2496,3.2471,3.2502,3.2481,3.2484,3.2509,3.2541,3.2545,3.2549,3.2597,3.2608,3.2616,0,0,0,0,0,0,3.2544,3.2526,3.251,3.2544,3.2542,3.2527,3.2547,3.2526,3.2531,3.2526,3.2498,3.2497,3.2525,3.252,3.2497,3.255,3.2517,3.2522,3.2552,3.2562,3.257,3.257,3.2454,0,0,0,0,0,3.256,3.2573,3.2557,3.2588,3.2588,3.2568,3.2574,3.2557,3.2553,3.2552,3.2542,3.254,3.2549,3.2555,3.2563,3.26,3.2596,3.2619,3.2627,3.2633,3.2637,3.2655,3.2664,3.2565,3.2565,3.2565,0,0,3.2593,3.2584,3.2594,3.2599,3.2595,3.2609,3.2568,3.2584,3.2594,3.2555,3.2577,3.257,3.2566,3.2596,3.261,3.2593,3.2664,3.2639,3.2644,3.2644,3.266,3.267,3.2678,3.2568,3.2568,3.2567,0,0,3.2658,3.2654,3.2679,3.2676,3.2671,3.2657,3.2663,3.2652,3.2645,3.2668,3.2638,3.2649,3.2665,3.2663,3.2663,3.2727,3.2704,3.273,3.2771,3.2788,3.2796,3.2803,3.2824,3.2832,3.2735,3.2735,3.2735,0,3.2699,3.2718,3.2695,3.2712,3.2714,3.268,3.2704,3.2703,3.27,3.2702,3.2684,3.2702,3.2697,3.2726,3.2741,3.2744,3.2749,3.2731,3.2797,3.2803,3.2809,3.2829,3.2837,3.2738,3.2738,3.2738,3.2737,0,3.2768,3.2782,3.2803,3.28,3.2805,3.2826,3.2805,3.2813,3.2796,3.2784,3.2806,3.2798,3.2802,3.2808,3.2792,3.2835,3.2824,3.2802,3.2768,3.2822,3.284,3.2848,3.2743,3.2742,3.2741,3.274,0,0,3.2866,3.285,3.2858,3.2856,3.2847,3.2857,3.2876,3.288,3.2887,3.2886,3.2901,3.2915,3.2894,3.2895,3.2878,3.2893,3.2942,3.2868,3.2868,3.2881,3.2987,3.3003,3.3012,3.2927,3.2929,3.293,3.2987,0,3.2928,3.2959,3.2938,3.2973,3.2984,3.2951,3.2968,3.2964,3.2953,3.2961,3.2949,3.2959,3.2931,3.2931,3.2945,3.2933,3.2963,3.2929,3.294,3.294,3.294,3.3022,3.3039,3.3094,3.2994,3.2995,3.2996,0,3.3003,3.3005,3.3041,3.3029,3.3033,3.3048,3.3049,3.3058,3.3052,3.3043,3.3044,3.3023,3.304,3.3008,3.303,3.3008,3.3011,3.3006,3.3007,3.3006,3.2971,3.3022,3.3111,3.3118,3.3007,3.3006,3.3005,0,3.3069,3.3081,3.3104,3.3103,3.309,3.3101,3.3096,3.3089,3.3092,3.3093,3.3095,3.3098,3.31,3.3103,3.3083,3.3061,3.3108,3.3074,3.31,3.31,3.311,3.311,3.3199,3.3115,3.3115,3.3114,3.3114,0,3.3139,3.3162,3.3133,3.3147,3.3171,3.3146,3.3171,3.3162,3.3156,3.3167,3.3139,3.315,3.3123,3.3131,3.3116,3.3136,3.3138,3.313,3.3126,3.3132,3.3133,3.3133,3.3128,3.3116,3.3116,3.3116,3.3115,0,3.3217,3.3198,3.322,3.3205,3.3202,3.3221,3.3208,3.3219,3.3207,3.3221,3.3223,3.3203,3.3211,3.3191,3.3197,3.3186,3.3215,3.3205,3.3217,3.3213,3.324,3.3237,3.3332,3.3342,3.3252,3.3253,3.3254,0,3.3262,3.3279,3.3265,3.327,3.3267,3.3276,3.3278,3.3255,3.3259,3.3253,3.3265,3.3271,3.3274,3.3288,3.3274,3.3278,3.3267,3.33,3.3267,3.3273,3.3266,3.3265,3.3266,3.3306,3.3307,3.3308,3.3309,0,3.3344,3.3333,3.3339,3.334,3.3344,3.3345,3.3343,3.3349,3.3323,3.3329,3.3337,3.3339,3.3344,3.335,3.335,3.3344,3.3322,3.3319,3.3325,3.3332,3.3337,3.3333,3.3234,3.3317,3.3316,3.3316,3.3315,3.3315,3.3405,3.3418,3.341,3.3416,3.3413,3.3411,3.3421,3.3409,3.3415,3.3417,3.3403,3.3413,3.3406,3.3404,3.3401,3.3408,3.3393,3.3402,3.3404,3.3407,3.3411,3.3337,3.3409,3.3408,3.3408,3.3408,3.3408,0,3.3484,3.3477,3.3484,3.3482,3.3486,3.3465,3.3462,3.3467,3.3477,3.3472,3.3475,3.3484,3.3489,3.3475,3.3478,3.3486,3.3476,3.3488,3.3486,3.3485,3.3425,3.3418,3.3496,3.3496,3.3496,3.3496,3.3496,3.3496,3.3526,3.3546,3.3534,3.3552,3.3544,3.3554,3.3554,3.3552,3.3548,3.3559,3.3562,3.3553,3.3545,3.3546,3.355,3.3546,3.3548,3.3563,3.3555,3.3498,3.349,3.3481,3.3475,3.3563,3.3564,3.3615,3.3615,3.3616]}]]